Regional Weather Roundup
Issued by NWS Kansas City/Pleasant Hill, MO

Home | Current Version | Previous Version | Text Only | Print | Product List | Glossary On
Versions: 1 2 3 4 5 6 7 8 9 10 11 12 13 14 15 16 17 18 19 20 21 22 23 24 25 26 27 28 29 30 31 32 33 34 35 36 37 38 39 40 41 42 43 44 45 46 47 48 49 50
093
ASUS43 KEAX 270210
RWREAX

WEATHER ROUNDUP FOR EASTERN KANSAS AND NORTHWEST MISSOURI
NATIONAL WEATHER SERVICE KANSAS CITY/PLEASANT HILL MO
900 PM CDT THU MAY 26 2016

KSZ040-057-103>105-MOZ028-029-037-043-270300-
...KANSAS CITY METROPOLITAN AREA...

CITY           SKY/WX    TMP DP  RH WIND       PRES   REMARKS
K.C. INTL      TSTM      63  60  90 N8        29.87R
K.C. DOWNTOWN  LGT RAIN  65  60  84 VRB6      29.89R
LEES SUMMIT    RAIN      63  60  90 E18       29.86R FOG
OLATHE - IXD   LGT RAIN  63  60  90 E10       29.86R
OLATHE - OJC   RAIN      62  60  93 E14       29.86R FOG
LAWRENCE       TSTM      62  61  96 N8        29.90R FOG

$$

MOZ001>008-011>017-020>025-030>033-038>040-044>046-053-054-270300-
...NORTHERN AND CENTRAL MISSOURI...

CITY           SKY/WX    TMP DP  RH WIND       PRES   REMARKS
ST. JOSEPH     LGT RAIN  63  60  90 NW12      29.90R
MOSBY          CLOUDY    64  59  82 NE12      29.82
WARRENSBURG    TSTM      63  63 100 NE9G20    29.88
WHITEMAN AFB   NOT AVBL
CLINTON        LGT RAIN  64  64 100 NE10      29.86F
SEDALIA        RAIN      66  64  93 MISG      29.91R FOG
WARSAW         NOT AVBL
CHILLICOTHE      N/A     64  62  93 N7        29.92F
KIRKSVILLE     HVY RAIN  66  62  87 CALM      30.01R FOG

$$

MOZ041-047>049-056>058-063>065-088>090-097-270300-
...EASTERN AND SOUTHERN MISSOURI...

CITY           SKY/WX    TMP DP  RH WIND       PRES   REMARKS
ST. LOUIS INTL CLOUDY    77  66  68 S13G20    29.89R
SPIRIT OF STL  CLOUDY    74  68  81 VRB5      29.86S
COLUMBIA       LGT RAIN  66  61  84 N14G24    29.89F
JEFFERSON CITY TSTM      67  65  93 NW3       29.87R FOG
ROLLA          CLOUDY    75  70  84 S13       29.84F
SPRINGFIELD    LGT RAIN  69  59  70 SE8       29.81F
BRANSON        MOCLDY    66  64  94 SE8       29.86F
JOPLIN         CLEAR     71  59  65 SE9       29.78F
WEST PLAINS    CLOUDY    73  64  73 S12       29.89F

$$

IAZ060-094-KSZ022-034>040-054-083-096-NEZ052-066-093-270300-
...KANSAS...SOUTHEAST NEBRASKA AND IOWA...

CITY           SKY/WX    TMP DP  RH WIND       PRES   REMARKS
TOPEKA         TSTM      63  60  90 NE14      29.86F
MANHATTAN      LGT RAIN  63  59  87 NE17G26   29.76F
EMPORIA        TSTM      61  60  97 N22G31    29.79F FOG
CHANUTE        CLEAR     75  66  73 S9        29.76S
WICHITA        MOCLDY    78  65  63 SE18G29   29.69R
OMAHA          RAIN      63  58  83 SE13      29.87R
LINCOLN        CLOUDY    63  59  87 E18       29.78F
FALLS CITY     TSTM      63  63 100 NE15      29.87F
LAMONI         RAIN      62  61  96 N6        29.95R
DES MOINES     LGT RAIN  64  59  83 N9        29.94F

$$





USA.gov is the U.S. government's official web portal to all federal, state and local government web resources and services.